Location: Mountain Grove
(34.0887°N, 86.6172°W)
Time: 22:05:05
(UTC+00:00)

ATLAS 2AS CENTAUR R/B - Pass Details

Date: 14 July 2020
Orbit: 930 x 1282 km, 63.7° (Epoch: 19 July)

Event Time Altitude Azimuth Distance (km) Brightness Sun altitude
Rises 03:30:09 0° 329° (NNW) 4,104 7.1 -24.8°
Reaches altitude 10° 03:33:00 10° 329° (NNW) 3,091 6.2 -25.2°
Maximum altitude 03:40:22 87° 242° (WSW) 1,103 2.6 -26.1°
Enters shadow 03:41:53 59° 156° (SSE) 1,238 2.6 -26.2°
